Tracking 30157 objects as of 12-Feb-2025
HD Live streaming from Space Station
objects crossing your sky now

DELTA 1 DEB

Track DELTA 1 DEB now!
10-day predictions


NORAD ID: 9313
Int'l Code: 1975-004EQ
Perigee: 707.7 km
Apogee: 829.4 km
Inclination: 97.6 °
Period: 100.1 minutes
Semi major axis: 7139 km
RCS: 0.0187 m2 (small)
Launch date: January 22, 1975
Source: United States (US)
Launch site: AIR FORCE WESTERN TEST RANGE (AFWTR)

Note: This is SATELLITE DEBRIS
Your satellite tracking list
Your tracking list is empty




NASA's NSSDC Master Catalog

Two Line Element Set (TLE):
1 09313U 75004EQ  25043.63560299  .00000521  00000-0  17328-3 0  9998
2 09313  97.5998 290.4160 0085169 231.4786 127.8747 14.39118990565284
Source of the keplerian elements: AFSPC